Weather History For Prescott AZ
This page updates 5 minutes after midnight. GMT -7
Station: KPRC0 Rows: 26
| Year | Date | Temp (°F) | Tmin (°F) | Tmax (°F) | RH% | Prcp | Snow | Wind | Gust | Pres | Sun | Cloud |
|---|---|---|---|---|---|---|---|---|---|---|---|---|
| 2000 | 2000-03-14 | 51.8 | 33.1 | 69.1 | 40 | — | — | 9.9 | — | 29.95 | — | 0 |
| 2001 | 2001-03-14 | 47.1 | 32.0 | 62.1 | 48 | — | — | 12.9 | — | 29.94 | — | 0 |
| 2002 | 2002-03-14 | 37.8 | 24.8 | 48.2 | 31 | — | — | 11.4 | — | 29.76 | — | 2 |
| 2003 | 2003-03-14 | 54.9 | — | — | 37 | — | — | 10.7 | — | 29.87 | — | 0 |
| 2004 | 2004-03-14 | 55.0 | — | — | 42 | — | — | 10.9 | — | 30.07 | — | 0 |
| 2005 | 2005-03-14 | 39.9 | 30.9 | 50.0 | 75 | — | — | 13.8 | — | 29.82 | — | 6 |
| 2006 | 2006-03-14 | 40.1 | 21.9 | 59.0 | 49 | 0.0 | — | 10.1 | — | 30.02 | — | 0 |
| 2007 | 2007-03-14 | 60.8 | 44.1 | 78.1 | 20 | 0.0 | — | 11.5 | — | 29.97 | — | 0 |
| 2008 | 2008-03-14 | 52.7 | 37.9 | 62.1 | 23 | 0.0 | — | 23.9 | — | 29.74 | — | 0 |
| 2009 | 2009-03-14 | 45.5 | 32.0 | 59.0 | 53 | 0.0 | — | 10.1 | — | 29.86 | — | 3 |
| 2010 | 2010-03-14 | 40.8 | 27.0 | 55.9 | 43 | 0.0 | — | 14.9 | — | 29.91 | — | 1 |
| 2011 | 2011-03-14 | 53.8 | 37.9 | 68.0 | 38 | 0.0 | — | 8.5 | — | 30.05 | — | 0 |
| 2012 | 2012-03-14 | 49.3 | 30.9 | 66.9 | 18 | 0.0 | — | 11.4 | — | 30.01 | — | 0 |
| 2013 | 2013-03-14 | 57.2 | 37.9 | 78.1 | 35 | 0.0 | — | 10.2 | — | 30.13 | — | 0 |
| 2014 | 2014-03-14 | 50.4 | 43.0 | 59.0 | 50 | — | — | 8.4 | — | 29.93 | — | — |
| 2015 | 2015-03-14 | 55.2 | 37.9 | 70.0 | 39 | 0.0 | — | 8.1 | — | 30.14 | — | 0 |
| 2016 | 2016-03-14 | 52.2 | 39.9 | 62.1 | 44 | 0.0 | — | 14.3 | — | 29.92 | — | 0 |
| 2017 | 2017-03-14 | 60.1 | 39.9 | 79.0 | 34 | 0.0 | — | 8.4 | — | 30.07 | — | 0 |
| 2018 | 2018-03-14 | 53.2 | 39.9 | 64.0 | 55 | 0.0 | — | 18.0 | — | 29.84 | — | 2 |
| 2019 | 2019-03-14 | 35.6 | 23.0 | 46.9 | 52 | 0.0 | — | 12.0 | — | 30.11 | — | — |
| 2020 | 2020-03-14 | — | — | — | — | — | — | 13.5 | — | 0.00 | — | — |
| 2021 | 2021-03-14 | 38.8 | 26.1 | 51.1 | 57 | 0.0 | — | 15.9 | — | 30.03 | — | 0 |
| 2022 | 2022-03-14 | 47.5 | 30.9 | 63.0 | 31 | 0.0 | — | 6.2 | — | 30.14 | — | 0 |
| 2023 | 2023-03-14 | 48.7 | 36.0 | 61.0 | 54 | — | — | 14.1 | — | 29.99 | — | 4 |
| 2024 | 2024-03-14 | 38.1 | 27.0 | 48.0 | 58 | — | — | 9.9 | — | 29.77 | — | 5 |
| 2025 | 2025-03-14 | 32.2 | 27.0 | 37.0 | 78 | — | — | 18.0 | — | 29.82 | — | — |